North Platte, NE

5:48 AM CDT on June 24, 2017 (GMT -0500)
North Platte Regional-Bird

Weather History for KLBF - January, 2012

Change the Weather History Date:

Wednesday, January 25, 2012

  Actual Average Record
Temperature  
Mean Temperature 32 °F 25 °F  
Max Temperature 56 °F 39 °F 66 °F (1935)
Min Temperature 7 °F 12 °F -14 °F (1950)
Degree Days  
Heating Degree Days 33 40  
Month to date heating degree days 901 1005  
Since 1 July heating degree days 3467 3785  
Cooling Degree Days 0 0  
Month to date cooling degree days 0 0  
Year to date cooling degree days 0 0  
Moisture  
Dew Point 16 °F    
Average Humidity 61    
Maximum Humidity 96    
Minimum Humidity 26    
Precipitation  
Precipitation 0.00 in 0.01 in 0.29 in (1950)
Month to date precipitation 0.09 0.27  
Year to date precipitation 0.09 0.27  
Snow  
Snow 0.00 in 0.20 in 3.00 in (1950)
Month to date snowfall 1.7 3.9  
Since 1 July snowfall 6.2 14.7  
Snow Depth 0.00 in    
Sea Level Pressure  
Sea Level Pressure 30.11 in    
Wind  
Wind Speed 6 mph (WNW)    
Max Wind Speed 20 mph    
Max Gust Speed 25 mph    
Visibility 10 miles    
Events      
T = Trace of Precipitation, MM = Missing Value Source: NWS Daily Summary

Daily Weather History Graph

Daily Weather History Graph

Search for Another Location

Airport or City:

Trip Planner

Search our weather history database for the weather conditions in past years. The results will help you decide how hot, cold, wet, or windy it might be!

Date:

Astronomy

Jan. 25, 2012 Rise Set
Actual Time 8:00 AM CST 5:50 PM CST
Civil Twilight 7:30 AM CST 6:19 PM CST
Nautical Twilight 6:57 AM CST 6:53 PM CST
Astronomical Twilight 6:24 AM CST 7:26 PM CST
Moon 8:58 AM CST (1/25) 8:47 PM CST (1/25)
Length of Visible Light 10h 49m
Length of Day
9h 50m
Waxing Crescent, 7% of the Moon is Illuminated
Jan 25
Waxing Crescent
Jan 30
First Quarter
Feb 7
Full
Feb 14
Last Quarter
Feb 21
New

Hourly Weather History & Observations

Time (CST) Temp. Windchill Dew Point Humidity Pressure Visibility Wind Dir Wind Speed Gust Speed Precip Events Conditions
12:53 AM 19.9 °F 11.1 °F 17.1 °F 89% 30.26 in 10.0 mi NW 6.9 mph - N/A   Clear
1:53 AM 16.0 °F 7.4 °F 14.0 °F 92% 30.26 in 10.0 mi NW 5.8 mph - N/A   Clear
2:53 AM 16.0 °F 6.3 °F 14.0 °F 92% 30.26 in 10.0 mi NW 6.9 mph - N/A   Clear
3:53 AM 14.0 °F 8.2 °F 10.9 °F 88% 30.26 in 10.0 mi NW 3.5 mph - N/A   Partly Cloudy
4:05 AM 14.0 °F 3.9 °F 12.2 °F 93% 30.18 in 10.0 mi NW 6.9 mph - N/A   Mostly Cloudy
4:15 AM 12.2 °F 0.7 °F 10.4 °F 92% 30.18 in 7.0 mi NW 8.1 mph - N/A   Scattered Clouds
4:53 AM 12.0 °F 2.7 °F 10.0 °F 92% 30.27 in 10.0 mi NW 5.8 mph - N/A   Clear
5:53 AM 14.0 °F 6.5 °F 12.0 °F 92% 30.27 in 10.0 mi West 4.6 mph - N/A   Clear
6:53 AM 10.0 °F 3.6 °F 7.0 °F 87% 30.25 in 10.0 mi WNW 3.5 mph - N/A   Clear
7:53 AM 8.1 °F -2.0 °F 6.1 °F 92% 30.25 in 10.0 mi NW 5.8 mph - N/A   Clear
8:53 AM 14.0 °F 6.5 °F 10.0 °F 84% 30.22 in 10.0 mi WNW 4.6 mph - N/A   Clear
9:53 AM 21.0 °F 13.4 °F 16.0 °F 81% 30.17 in 10.0 mi West 5.8 mph - N/A   Clear
10:53 AM 30.9 °F 26.2 °F 21.9 °F 69% 30.14 in 10.0 mi SSW 4.6 mph - N/A   Clear
11:53 AM 39.9 °F 35.8 °F 24.1 °F 53% 30.10 in 10.0 mi WSW 5.8 mph - N/A   Clear
12:53 PM 50.0 °F - 21.9 °F 33% 30.04 in 10.0 mi SW 15.0 mph 25.3 mph N/A   Clear
1:53 PM 52.0 °F - 21.0 °F 30% 30.01 in 10.0 mi WSW 15.0 mph - N/A   Clear
2:53 PM 55.4 °F - 21.2 °F 26% 29.91 in 10.0 mi WSW 13.8 mph 20.7 mph N/A   Clear
3:53 PM 55.9 °F - 23.0 °F 28% 29.95 in 10.0 mi WSW 9.2 mph - N/A   Clear
4:53 PM 51.1 °F - 23.0 °F 33% 29.96 in 10.0 mi West 8.1 mph - N/A   Clear
5:53 PM 43.0 °F - 21.0 °F 42% 29.96 in 10.0 mi Calm Calm - N/A   Clear
6:53 PM 33.1 °F 30.0 °F 19.0 °F 56% 30.01 in 10.0 mi NW 3.5 mph - N/A   Clear
7:53 PM 30.0 °F 24.1 °F 19.0 °F 64% 30.02 in 10.0 mi WNW 5.8 mph - N/A   Clear
8:53 PM 27.0 °F - 18.0 °F 69% 30.00 in 10.0 mi Calm Calm - N/A   Clear
9:53 PM 24.1 °F 16.0 °F 17.1 °F 75% 30.01 in 10.0 mi WNW 6.9 mph - N/A   Clear
10:53 PM 24.1 °F 16.0 °F 18.0 °F 77% 30.00 in 10.0 mi NW 6.9 mph - N/A   Clear
11:53 PM 21.9 °F 13.4 °F 18.0 °F 85% 30.00 in 10.0 mi NW 6.9 mph - N/A   Clear